Back to catalog

BREEZE-M DEB

LostHEO
NORAD 32481·DEBRIS·🇷🇺 Russia

Launched Feb 28, 2006 from Baikonur Cosmodrome

Loading…

Next Passes (next 24 hours)

TLE

StaleSource: Space-Track

Epoch: Nov 1, 2008, 20:00 UTC

1 32481U 06006AB  08306.83401400  .00025952  00000-0  14550+0 0  9994
2 32481  49.6432 139.6633 4844458 209.3447 110.4015  5.41444928 18153

Track BREEZE-M DEB in real time with AllMySat

Download on the App Store